軌道要素
Epoch 2011 July 18.0 TT = JDT 2455760.5
T 2011 June 30.93904 TT MPC
q 2.5764093 (2000.0) P Q
n 0.17232797 Peri. 35.59216 +0.92682161 -0.37550070
a 3.1981502 Node 346.46301 +0.34355731 +0.84900702
e 0.1944064 Incl. 0.23560 +0.15155884 +0.37173418
P 5.72
From 525 observations 1999 Aug. 17-2014 May 6, mean residual 0".4.
|